Time,TemperatureF,DewpointF,PressureIn,WindDirection,WindDirectionDegrees,WindSpeedMPH,WindSpeedGustMPH,Humidity,HourlyPrecipIn,Conditions,Clouds,dailyrainin,SoftwareType,DateUTC
2013-02-09 00:00:00,36.1,30.2,30.15,North,360,0.0,0.0,79,0.00,,---,0.00,VWS V14.00,2013-02-09 05:00:00,
2013-02-09 00:05:00,36.0,30.1,30.15,North,360,0.0,0.0,79,0.00,,---,0.00,VWS V14.00,2013-02-09 05:05:00,
2013-02-09 00:11:00,36.0,30.1,30.16,North,360,0.0,0.0,79,0.00,,---,0.00,VWS V14.00,2013-02-09 05:11:00,
2013-02-09 00:16:00,36.0,30.1,30.16,North,360,0.0,0.0,79,0.00,,---,0.00,VWS V14.00,2013-02-09 05:16:00,
2013-02-09 00:21:00,36.0,29.8,30.16,North,360,0.0,0.0,78,0.00,,---,0.00,VWS V14.00,2013-02-09 05:21:00,
2013-02-09 00:26:00,35.9,29.7,30.16,North,360,0.0,0.0,78,0.00,,---,0.00,VWS V14.00,2013-02-09 05:26:00,
2013-02-09 00:31:00,36.0,29.8,30.16,North,360,0.0,0.0,78,0.00,,---,0.00,VWS V14.00,2013-02-09 05:31:00,
2013-02-09 00:36:00,36.1,29.9,30.17,North,360,0.0,0.0,78,0.00,,---,0.00,VWS V14.00,2013-02-09 05:36:00,
2013-02-09 00:41:00,36.0,29.8,30.16,North,360,0.0,0.0,78,0.00,,---,0.00,VWS V14.00,2013-02-09 05:41:00,
2013-02-09 00:46:00,36.0,29.8,30.16,North,360,0.0,0.0,78,0.00,,---,0.00,VWS V14.00,2013-02-09 05:46:00,
2013-02-09 00:51:00,35.9,29.7,30.16,North,360,0.0,0.0,78,0.00,,---,0.00,VWS V14.00,2013-02-09 05:51:00,
2013-02-09 00:56:00,36.0,29.8,30.16,North,360,0.0,0.0,78,0.00,,---,0.00,VWS V14.00,2013-02-09 05:56:00,
2013-02-09 01:01:00,35.9,29.7,30.16,North,360,0.0,0.0,78,0.00,,---,0.00,VWS V14.00,2013-02-09 06:01:00,
2013-02-09 01:06:00,35.9,29.7,30.17,North,360,0.0,0.0,78,0.00,,---,0.00,VWS V14.00,2013-02-09 06:06:00,
2013-02-09 01:11:00,36.0,29.5,30.17,North,360,0.0,0.0,77,0.00,,---,0.00,VWS V14.00,2013-02-09 06:11:00,
2013-02-09 01:16:00,36.0,29.5,30.17,North,360,0.0,0.0,77,0.00,,---,0.00,VWS V14.00,2013-02-09 06:16:00,
2013-02-09 01:21:00,36.0,29.5,30.17,North,360,0.0,0.0,77,0.00,,---,0.00,VWS V14.00,2013-02-09 06:21:00,
2013-02-09 01:26:00,36.0,29.5,30.18,North,360,0.0,0.0,77,0.00,,---,0.00,VWS V14.00,2013-02-09 06:26:00,
2013-02-09 01:31:00,35.9,29.4,30.18,North,360,0.0,0.0,77,0.00,,---,0.00,VWS V14.00,2013-02-09 06:31:00,
2013-02-09 01:36:00,35.8,29.3,30.18,North,360,0.0,0.0,77,0.00,,---,0.00,VWS V14.00,2013-02-09 06:36:00,
2013-02-09 01:41:00,35.7,29.2,30.18,North,360,0.0,0.0,77,0.00,,---,0.00,VWS V14.00,2013-02-09 06:41:00,
2013-02-09 01:46:00,35.7,29.2,30.18,North,360,0.0,0.0,77,0.00,,---,0.00,VWS V14.00,2013-02-09 06:46:00,
2013-02-09 01:51:00,35.6,29.1,30.18,North,360,0.0,0.0,77,0.00,,---,0.00,VWS V14.00,2013-02-09 06:51:00,
2013-02-09 01:56:00,35.5,29.0,30.17,North,360,0.0,0.0,77,0.00,,---,0.00,VWS V14.00,2013-02-09 06:56:00,
2013-02-09 02:01:00,35.3,29.1,30.18,North,360,0.0,0.0,78,0.00,,---,0.00,VWS V14.00,2013-02-09 07:01:00,
2013-02-09 02:06:00,35.3,29.1,30.18,North,360,0.0,0.0,78,0.00,,---,0.00,VWS V14.00,2013-02-09 07:06:00,
2013-02-09 02:11:00,35.2,29.0,30.18,North,360,0.0,0.0,78,0.00,,---,0.00,VWS V14.00,2013-02-09 07:11:00,
2013-02-09 02:16:00,35.1,28.9,30.18,North,360,0.0,0.0,78,0.00,,---,0.00,VWS V14.00,2013-02-09 07:16:00,
2013-02-09 02:21:00,35.1,28.9,30.18,North,360,0.0,0.0,78,0.00,,---,0.00,VWS V14.00,2013-02-09 07:21:00,
2013-02-09 02:26:00,35.0,28.5,30.18,North,360,0.0,0.0,77,0.00,,---,0.00,VWS V14.00,2013-02-09 07:26:00,
2013-02-09 02:31:00,35.0,28.5,30.18,North,360,0.0,0.0,77,0.00,,---,0.00,VWS V14.00,2013-02-09 07:31:00,
2013-02-09 02:36:00,35.0,28.5,30.18,North,360,0.0,0.0,77,0.00,,---,0.00,VWS V14.00,2013-02-09 07:36:00,
2013-02-09 02:41:00,35.0,28.9,30.18,North,360,0.0,0.0,78,0.00,,---,0.00,VWS V14.00,2013-02-09 07:41:00,
2013-02-09 02:46:00,35.0,28.9,30.18,North,360,0.0,0.0,78,0.00,,---,0.00,VWS V14.00,2013-02-09 07:46:00,
2013-02-09 02:52:00,35.0,28.5,30.18,North,360,0.0,0.0,77,0.00,,---,0.00,VWS V14.00,2013-02-09 07:52:00,
2013-02-09 02:57:00,35.1,28.6,30.18,North,360,0.0,0.0,77,0.00,,---,0.00,VWS V14.00,2013-02-09 07:57:00,
2013-02-09 03:02:00,35.2,28.4,30.18,North,360,0.0,0.0,76,0.00,,---,0.00,VWS V14.00,2013-02-09 08:02:00,
2013-02-09 03:07:00,35.3,28.5,30.19,North,360,0.0,0.0,76,0.00,,---,0.00,VWS V14.00,2013-02-09 08:07:00,
2013-02-09 03:12:00,35.2,28.4,30.18,North,360,0.0,0.0,76,0.00,,---,0.00,VWS V14.00,2013-02-09 08:12:00,
2013-02-09 03:17:00,35.1,28.3,30.18,North,360,0.0,0.0,76,0.00,,---,0.00,VWS V14.00,2013-02-09 08:17:00,
2013-02-09 03:22:00,35.0,28.2,30.19,North,360,0.0,0.0,76,0.00,,---,0.00,VWS V14.00,2013-02-09 08:22:00,
2013-02-09 03:27:00,35.1,28.0,30.19,North,360,0.0,0.0,75,0.00,,---,0.00,VWS V14.00,2013-02-09 08:27:00,
2013-02-09 03:32:00,35.2,27.8,30.19,North,360,0.0,0.0,74,0.00,,---,0.00,VWS V14.00,2013-02-09 08:32:00,
2013-02-09 03:37:00,35.3,27.5,30.19,North,360,0.0,0.0,73,0.00,,---,0.00,VWS V14.00,2013-02-09 08:37:00,
2013-02-09 03:42:00,35.3,27.5,30.19,North,360,0.0,0.0,73,0.00,,---,0.00,VWS V14.00,2013-02-09 08:42:00,
2013-02-09 03:47:00,35.3,27.5,30.19,North,360,0.0,0.0,73,0.00,,---,0.00,VWS V14.00,2013-02-09 08:47:00,
2013-02-09 03:52:00,35.2,27.4,30.19,North,360,0.0,0.0,73,0.00,,---,0.00,VWS V14.00,2013-02-09 08:52:00,
2013-02-09 03:57:00,35.1,27.0,30.19,North,360,0.0,0.0,72,0.00,,---,0.00,VWS V14.00,2013-02-09 08:57:00,
2013-02-09 04:02:00,35.1,27.0,30.19,North,360,0.0,0.0,72,0.00,,---,0.00,VWS V14.00,2013-02-09 09:02:00,
2013-02-09 04:07:00,35.2,26.8,30.20,North,360,0.0,0.0,71,0.00,,---,0.00,VWS V14.00,2013-02-09 09:07:00,
2013-02-09 04:12:00,35.3,26.5,30.20,North,360,0.0,0.0,70,0.00,,---,0.00,VWS V14.00,2013-02-09 09:12:00,
2013-02-09 04:17:00,35.5,26.7,30.21,North,360,0.0,0.0,70,0.00,,---,0.00,VWS V14.00,2013-02-09 09:17:00,
2013-02-09 04:22:00,35.3,27.2,30.21,North,360,0.0,0.0,72,0.00,,---,0.00,VWS V14.00,2013-02-09 09:22:00,
2013-02-09 04:27:00,35.2,26.4,30.21,North,360,0.0,0.0,70,0.00,,---,0.00,VWS V14.00,2013-02-09 09:27:00,
2013-02-09 04:32:00,35.0,27.9,30.21,North,360,0.0,0.0,75,0.00,,---,0.00,VWS V14.00,2013-02-09 09:32:00,
2013-02-09 04:37:00,34.6,27.8,30.21,North,360,0.0,0.0,76,0.00,,---,0.00,VWS V14.00,2013-02-09 09:37:00,
2013-02-09 04:42:00,34.1,27.3,30.21,North,360,0.0,0.0,76,0.00,,---,0.00,VWS V14.00,2013-02-09 09:42:00,
2013-02-09 04:47:00,33.7,27.0,30.22,North,360,0.0,0.0,76,0.00,,---,0.00,VWS V14.00,2013-02-09 09:47:00,
2013-02-09 04:52:00,33.5,26.1,30.22,North,360,0.0,0.0,74,0.00,,---,0.00,VWS V14.00,2013-02-09 09:52:00,
2013-02-09 04:57:00,33.5,26.1,30.22,North,360,0.0,0.0,74,0.00,,---,0.00,VWS V14.00,2013-02-09 09:57:00,
2013-02-09 05:02:00,33.4,26.7,30.22,North,360,0.0,0.0,76,0.00,,---,0.00,VWS V14.00,2013-02-09 10:02:00,
2013-02-09 05:07:00,33.4,26.7,30.22,North,360,0.0,0.0,76,0.00,,---,0.00,VWS V14.00,2013-02-09 10:07:00,
2013-02-09 05:12:00,33.4,26.3,30.22,North,360,0.0,0.0,75,0.00,,---,0.00,VWS V14.00,2013-02-09 10:12:00,
2013-02-09 05:17:00,33.3,25.9,30.23,North,360,0.0,0.0,74,0.00,,---,0.00,VWS V14.00,2013-02-09 10:17:00,
2013-02-09 05:22:00,33.2,26.5,30.23,North,360,0.0,0.0,76,0.00,,---,0.00,VWS V14.00,2013-02-09 10:22:00,
2013-02-09 05:28:00,33.2,26.1,30.23,North,360,0.0,0.0,75,0.00,,---,0.00,VWS V14.00,2013-02-09 10:28:00,
2013-02-09 05:33:00,33.0,26.9,30.23,North,360,0.0,0.0,78,0.00,,---,0.00,VWS V14.00,2013-02-09 10:33:00,
2013-02-09 05:38:00,32.8,26.4,30.23,North,360,0.0,0.0,77,0.00,,---,0.00,VWS V14.00,2013-02-09 10:38:00,
2013-02-09 05:43:00,32.6,25.9,30.23,North,360,0.0,0.0,76,0.00,,---,0.00,VWS V14.00,2013-02-09 10:43:00,
2013-02-09 05:48:00,32.4,26.9,30.23,North,360,0.0,0.0,80,0.00,,---,0.00,VWS V14.00,2013-02-09 10:48:00,
2013-02-09 05:53:00,32.1,26.9,30.24,North,360,0.0,0.0,81,0.00,,---,0.00,VWS V14.00,2013-02-09 10:53:00,
2013-02-09 05:58:00,31.7,26.2,30.24,North,360,0.0,0.0,80,0.00,,---,0.00,VWS V14.00,2013-02-09 10:58:00,
2013-02-09 06:03:00,31.4,26.2,30.24,North,360,0.0,0.0,81,0.00,,---,0.00,VWS V14.00,2013-02-09 11:03:00,
2013-02-09 06:08:00,31.0,26.2,30.24,North,360,0.0,0.0,82,0.00,,---,0.00,VWS V14.00,2013-02-09 11:08:00,
2013-02-09 06:13:00,30.8,26.3,30.24,North,360,0.0,0.0,83,0.00,,---,0.00,VWS V14.00,2013-02-09 11:13:00,
2013-02-09 06:18:00,30.5,26.0,30.24,North,360,0.0,0.0,83,0.00,,---,0.00,VWS V14.00,2013-02-09 11:18:00,
2013-02-09 06:23:00,30.3,25.8,30.24,North,360,0.0,0.0,83,0.00,,---,0.00,VWS V14.00,2013-02-09 11:23:00,
2013-02-09 06:28:00,30.2,26.0,30.24,North,360,0.0,0.0,84,0.00,,---,0.00,VWS V14.00,2013-02-09 11:28:00,
2013-02-09 06:33:00,30.0,26.0,30.24,North,360,0.0,0.0,85,0.00,,---,0.00,VWS V14.00,2013-02-09 11:33:00,
2013-02-09 06:38:00,29.7,25.5,30.24,North,360,0.0,0.0,84,0.00,,---,0.00,VWS V14.00,2013-02-09 11:38:00,
2013-02-09 06:43:00,29.6,25.6,30.24,North,360,0.0,0.0,85,0.00,,---,0.00,VWS V14.00,2013-02-09 11:43:00,
2013-02-09 06:48:00,29.5,25.8,30.24,North,360,0.0,0.0,86,0.00,,---,0.00,VWS V14.00,2013-02-09 11:48:00,
2013-02-09 06:53:00,29.3,25.9,30.24,North,360,0.0,0.0,87,0.00,,---,0.00,VWS V14.00,2013-02-09 11:53:00,
2013-02-09 06:58:00,29.1,25.7,30.24,North,360,0.0,0.0,87,0.00,,---,0.00,VWS V14.00,2013-02-09 11:58:00,
2013-02-09 07:04:00,28.9,25.5,30.24,North,360,0.0,0.0,87,0.00,,---,0.00,VWS V14.00,2013-02-09 12:04:00,
2013-02-09 07:09:00,28.7,25.3,30.24,North,360,0.0,0.0,87,0.00,,---,0.00,VWS V14.00,2013-02-09 12:09:00,
2013-02-09 07:14:00,28.5,25.1,30.24,North,360,0.0,0.0,87,0.00,,---,0.00,VWS V14.00,2013-02-09 12:14:00,
2013-02-09 07:19:00,28.3,24.9,30.25,North,360,0.0,0.0,87,0.00,,---,0.00,VWS V14.00,2013-02-09 12:19:00,
2013-02-09 07:24:00,28.1,24.7,30.25,North,360,0.0,0.0,87,0.00,,---,0.00,VWS V14.00,2013-02-09 12:24:00,
2013-02-09 07:29:00,27.9,24.5,30.25,North,360,0.0,0.0,87,0.00,,---,0.00,VWS V14.00,2013-02-09 12:29:00,
2013-02-09 07:34:00,27.9,24.5,30.25,North,360,0.0,0.0,87,0.00,,---,0.00,VWS V14.00,2013-02-09 12:34:00,
2013-02-09 07:39:00,27.8,24.7,30.25,North,360,0.0,0.0,88,0.00,,---,0.00,VWS V14.00,2013-02-09 12:39:00,
2013-02-09 07:44:00,27.8,24.7,30.26,North,360,0.0,0.0,88,0.00,,---,0.00,VWS V14.00,2013-02-09 12:44:00,
2013-02-09 07:50:00,27.8,24.7,30.26,North,360,0.0,0.0,88,0.00,,---,0.00,VWS V14.00,2013-02-09 12:50:00,
2013-02-09 07:55:00,27.8,24.7,30.27,North,360,0.0,0.0,88,0.00,,---,0.00,VWS V14.00,2013-02-09 12:55:00,
2013-02-09 08:00:00,27.8,25.0,30.27,North,360,0.0,0.0,89,0.00,,---,0.00,VWS V14.00,2013-02-09 13:00:00,
2013-02-09 08:05:00,27.7,24.9,30.27,North,360,0.0,0.0,89,0.00,,---,0.00,VWS V14.00,2013-02-09 13:05:00,
2013-02-09 08:10:00,27.7,24.9,30.27,North,360,0.0,0.0,89,0.00,,---,0.00,VWS V14.00,2013-02-09 13:10:00,
2013-02-09 08:15:00,27.7,24.9,30.28,North,360,0.0,0.0,89,0.00,,---,0.00,VWS V14.00,2013-02-09 13:15:00,
2013-02-09 08:20:00,27.8,25.0,30.28,North,360,0.0,0.0,89,0.00,,---,0.00,VWS V14.00,2013-02-09 13:20:00,
2013-02-09 08:25:00,27.8,25.0,30.28,North,360,0.0,0.0,89,0.00,,---,0.00,VWS V14.00,2013-02-09 13:25:00,
2013-02-09 08:30:00,27.9,25.1,30.28,North,360,0.0,0.0,89,0.00,,---,0.00,VWS V14.00,2013-02-09 13:30:00,
2013-02-09 08:35:00,28.2,25.6,30.28,North,360,0.0,0.0,90,0.00,,---,0.00,VWS V14.00,2013-02-09 13:35:00,
2013-02-09 08:40:00,28.5,26.0,30.29,North,360,0.0,0.0,90,0.00,,---,0.00,VWS V14.00,2013-02-09 13:40:00,
2013-02-09 08:45:00,28.8,26.2,30.29,North,360,0.0,0.0,90,0.00,,---,0.00,VWS V14.00,2013-02-09 13:45:00,
2013-02-09 08:50:00,29.1,26.5,30.29,North,360,0.0,0.0,90,0.00,,---,0.00,VWS V14.00,2013-02-09 13:50:00,
2013-02-09 08:55:00,29.5,26.9,30.29,North,360,0.0,0.0,90,0.00,,---,0.00,VWS V14.00,2013-02-09 13:55:00,
2013-02-09 09:00:00,29.9,27.1,30.29,North,360,0.0,0.0,89,0.00,,---,0.00,VWS V14.00,2013-02-09 14:00:00,
2013-02-09 09:05:00,30.4,27.5,30.30,North,360,0.0,0.0,89,0.00,,---,0.00,VWS V14.00,2013-02-09 14:05:00,
2013-02-09 09:10:00,31.0,28.1,30.30,North,360,0.0,0.0,89,0.00,,---,0.00,VWS V14.00,2013-02-09 14:10:00,
2013-02-09 09:15:00,31.7,28.6,30.30,North,360,0.0,0.0,88,0.00,,---,0.00,VWS V14.00,2013-02-09 14:15:00,
2013-02-09 09:20:00,32.3,29.1,30.30,North,360,0.0,0.0,88,0.00,,---,0.00,VWS V14.00,2013-02-09 14:20:00,
2013-02-09 09:25:00,33.1,29.7,30.30,North,360,0.0,0.0,87,0.00,,---,0.00,VWS V14.00,2013-02-09 14:25:00,
2013-02-09 09:30:00,34.0,29.7,30.30,North,360,0.0,0.0,84,0.00,,---,0.00,VWS V14.00,2013-02-09 14:30:00,
2013-02-09 09:35:00,35.0,30.1,30.30,North,360,0.0,0.0,82,0.00,,---,0.00,VWS V14.00,2013-02-09 14:35:00,
2013-02-09 09:40:00,35.9,29.4,30.30,North,360,0.0,0.0,77,0.00,,---,0.00,VWS V14.00,2013-02-09 14:40:00,
2013-02-09 09:45:00,36.8,30.6,30.31,North,360,0.0,0.0,78,0.00,,---,0.00,VWS V14.00,2013-02-09 14:45:00,
2013-02-09 09:50:00,37.5,29.6,30.31,North,360,0.0,0.0,73,0.00,,---,0.00,VWS V14.00,2013-02-09 14:50:00,
2013-02-09 09:56:00,38.4,30.5,30.31,North,360,0.0,0.0,73,0.00,,---,0.00,VWS V14.00,2013-02-09 14:56:00,
2013-02-09 10:01:00,39.9,30.2,30.31,North,360,0.0,0.0,68,0.00,,---,0.00,VWS V14.00,2013-02-09 15:01:00,
2013-02-09 10:06:00,41.5,30.6,30.32,North,360,0.0,0.0,65,0.00,,---,0.00,VWS V14.00,2013-02-09 15:06:00,
2013-02-09 10:11:00,43.1,28.9,30.32,North,360,0.0,0.0,57,0.00,,---,0.00,VWS V14.00,2013-02-09 15:11:00,
2013-02-09 10:16:00,44.5,25.0,30.32,North,360,0.0,0.0,46,0.00,,---,0.00,VWS V14.00,2013-02-09 15:16:00,
2013-02-09 10:21:00,45.7,23.4,30.32,North,360,0.0,0.0,41,0.00,,---,0.00,VWS V14.00,2013-02-09 15:21:00,
2013-02-09 10:26:00,46.6,25.9,30.32,North,360,0.0,0.0,44,0.00,,---,0.00,VWS V14.00,2013-02-09 15:26:00,
2013-02-09 10:31:00,47.6,23.9,30.32,North,360,0.0,0.0,39,0.00,,---,0.00,VWS V14.00,2013-02-09 15:31:00,
2013-02-09 10:36:00,48.8,23.0,30.32,North,360,0.0,0.0,36,0.00,,---,0.00,VWS V14.00,2013-02-09 15:36:00,
2013-02-09 10:41:00,49.6,23.1,30.32,North,360,0.0,0.0,35,0.00,,---,0.00,VWS V14.00,2013-02-09 15:41:00,
2013-02-09 10:46:00,50.1,22.8,30.32,North,360,0.0,0.0,34,0.00,,---,0.00,VWS V14.00,2013-02-09 15:46:00,
2013-02-09 10:51:00,50.5,23.2,30.32,North,360,0.0,0.0,34,0.00,,---,0.00,VWS V14.00,2013-02-09 15:51:00,
2013-02-09 10:56:00,50.9,19.0,30.33,North,360,0.0,0.0,28,0.00,,---,0.00,VWS V14.00,2013-02-09 15:56:00,
2013-02-09 11:01:00,51.3,20.9,30.32,North,360,0.0,0.0,30,0.00,,---,0.00,VWS V14.00,2013-02-09 16:01:00,
2013-02-09 11:06:00,51.7,21.3,30.32,North,360,0.0,0.0,30,0.00,,---,0.00,VWS V14.00,2013-02-09 16:06:00,
2013-02-09 11:11:00,52.0,23.8,30.32,North,360,0.0,0.0,33,0.00,,---,0.00,VWS V14.00,2013-02-09 16:11:00,
2013-02-09 11:16:00,52.4,21.9,30.32,North,360,0.0,0.0,30,0.00,,---,0.00,VWS V14.00,2013-02-09 16:16:00,
2013-02-09 11:21:00,52.7,20.5,30.32,North,360,0.0,0.0,28,0.00,,---,0.00,VWS V14.00,2013-02-09 16:21:00,
2013-02-09 11:26:00,52.9,18.0,30.32,North,360,0.0,0.0,25,0.00,,---,0.00,VWS V14.00,2013-02-09 16:26:00,
2013-02-09 11:31:00,52.9,20.7,30.33,North,360,0.0,0.0,28,0.00,,---,0.00,VWS V14.00,2013-02-09 16:31:00,
2013-02-09 11:36:00,52.9,21.5,30.32,North,360,0.0,0.0,29,0.00,,---,0.00,VWS V14.00,2013-02-09 16:36:00,
2013-02-09 11:41:00,52.9,23.1,30.32,North,360,0.0,0.0,31,0.00,,---,0.00,VWS V14.00,2013-02-09 16:41:00,
2013-02-09 11:46:00,53.0,25.4,30.32,North,360,0.0,0.0,34,0.00,,---,0.00,VWS V14.00,2013-02-09 16:46:00,
2013-02-09 11:51:00,53.2,24.9,30.32,North,360,0.0,0.0,33,0.00,,---,0.00,VWS V14.00,2013-02-09 16:51:00,
2013-02-09 11:56:00,53.4,22.8,30.32,North,360,0.0,0.0,30,0.00,,---,0.00,VWS V14.00,2013-02-09 16:56:00,
2013-02-09 12:01:00,53.6,25.2,30.31,North,360,0.0,0.0,33,0.00,,---,0.00,VWS V14.00,2013-02-09 17:01:00,
2013-02-09 12:06:00,53.8,23.1,30.32,North,360,0.0,0.0,30,0.00,,---,0.00,VWS V14.00,2013-02-09 17:06:00,
2013-02-09 12:11:00,54.0,25.6,30.32,North,360,0.0,0.0,33,0.00,,---,0.00,VWS V14.00,2013-02-09 17:11:00,
2013-02-09 12:16:00,54.2,25.0,30.32,North,360,0.0,0.0,32,0.00,,---,0.00,VWS V14.00,2013-02-09 17:16:00,
2013-02-09 12:21:00,54.4,22.8,30.32,North,360,0.0,0.0,29,0.00,,---,0.00,VWS V14.00,2013-02-09 17:21:00,
2013-02-09 12:27:00,54.5,25.3,30.32,North,360,0.0,0.0,32,0.00,,---,0.00,VWS V14.00,2013-02-09 17:27:00,
2013-02-09 12:32:00,54.7,23.1,30.32,North,360,0.0,0.0,29,0.00,,---,0.00,VWS V14.00,2013-02-09 17:32:00,
2013-02-09 12:37:00,54.9,23.3,30.31,North,360,0.0,0.0,29,0.00,,---,0.00,VWS V14.00,2013-02-09 17:37:00,
2013-02-09 12:42:00,54.9,24.9,30.31,North,360,0.0,0.0,31,0.00,,---,0.00,VWS V14.00,2013-02-09 17:42:00,
2013-02-09 12:47:00,55.1,25.0,30.31,North,360,0.0,0.0,31,0.00,,---,0.00,VWS V14.00,2013-02-09 17:47:00,
2013-02-09 12:52:00,55.3,23.6,30.31,North,360,0.0,0.0,29,0.00,,---,0.00,VWS V14.00,2013-02-09 17:52:00,
2013-02-09 12:57:00,55.5,24.6,30.31,North,360,0.0,0.0,30,0.00,,---,0.00,VWS V14.00,2013-02-09 17:57:00,
2013-02-09 13:02:00,55.6,22.2,30.30,North,360,0.0,0.0,27,0.00,,---,0.00,VWS V14.00,2013-02-09 18:02:00,
2013-02-09 13:07:00,55.6,22.2,30.30,North,360,0.0,0.0,27,0.00,,---,0.00,VWS V14.00,2013-02-09 18:07:00,
2013-02-09 13:12:00,55.6,21.3,30.29,North,360,0.0,0.0,26,0.00,,---,0.00,VWS V14.00,2013-02-09 18:12:00,
2013-02-09 13:17:00,55.7,21.4,30.29,North,360,0.0,0.0,26,0.00,,---,0.00,VWS V14.00,2013-02-09 18:17:00,
2013-02-09 13:22:00,55.7,23.1,30.29,North,360,0.0,0.0,28,0.00,,---,0.00,VWS V14.00,2013-02-09 18:22:00,
2013-02-09 13:27:00,55.8,22.3,30.29,North,360,0.0,0.0,27,0.00,,---,0.00,VWS V14.00,2013-02-09 18:27:00,
2013-02-09 13:32:00,55.8,22.3,30.29,North,360,0.0,0.0,27,0.00,,---,0.00,VWS V14.00,2013-02-09 18:32:00,
2013-02-09 13:37:00,55.9,22.4,30.29,North,360,0.0,0.0,27,0.00,,---,0.00,VWS V14.00,2013-02-09 18:37:00,
2013-02-09 13:42:00,56.0,25.0,30.28,North,360,0.0,0.0,30,0.00,,---,0.00,VWS V14.00,2013-02-09 18:42:00,
2013-02-09 13:47:00,56.2,24.4,30.28,North,360,0.0,0.0,29,0.00,,---,0.00,VWS V14.00,2013-02-09 18:47:00,
2013-02-09 13:52:00,56.3,22.8,30.28,North,360,0.0,0.0,27,0.00,,---,0.00,VWS V14.00,2013-02-09 18:52:00,
2013-02-09 13:57:00,56.4,22.9,30.28,North,360,0.0,0.0,27,0.00,,---,0.00,VWS V14.00,2013-02-09 18:57:00,
2013-02-09 14:02:00,56.5,23.8,30.28,North,360,0.0,0.0,28,0.00,,---,0.00,VWS V14.00,2013-02-09 19:02:00,
2013-02-09 14:07:00,56.7,23.1,30.28,North,360,0.0,0.0,27,0.00,,---,0.00,VWS V14.00,2013-02-09 19:07:00,
2013-02-09 14:12:00,56.8,22.3,30.27,North,360,0.0,0.0,26,0.00,,---,0.00,VWS V14.00,2013-02-09 19:12:00,
2013-02-09 14:17:00,56.8,22.3,30.27,North,360,0.0,0.0,26,0.00,,---,0.00,VWS V14.00,2013-02-09 19:17:00,
2013-02-09 14:23:00,56.9,23.3,30.26,North,360,0.0,0.0,27,0.00,,---,0.00,VWS V14.00,2013-02-09 19:23:00,
2013-02-09 14:28:00,57.0,25.9,30.26,North,360,0.0,0.0,30,0.00,,---,0.00,VWS V14.00,2013-02-09 19:28:00,
2013-02-09 14:33:00,57.1,26.8,30.26,North,360,0.0,0.0,31,0.00,,---,0.00,VWS V14.00,2013-02-09 19:33:00,
2013-02-09 14:38:00,57.2,26.9,30.26,North,360,0.0,0.0,31,0.00,,---,0.00,VWS V14.00,2013-02-09 19:38:00,
2013-02-09 14:43:00,57.3,27.0,30.26,North,360,0.0,0.0,31,0.00,,---,0.00,VWS V14.00,2013-02-09 19:43:00,
2013-02-09 14:48:00,57.3,25.3,30.26,North,360,0.0,0.0,29,0.00,,---,0.00,VWS V14.00,2013-02-09 19:48:00,
2013-02-09 14:53:00,57.4,25.4,30.26,North,360,0.0,0.0,29,0.00,,---,0.00,VWS V14.00,2013-02-09 19:53:00,
2013-02-09 14:58:00,57.5,26.3,30.26,North,360,0.0,0.0,30,0.00,,---,0.00,VWS V14.00,2013-02-09 19:58:00,
2013-02-09 15:03:00,57.6,26.4,30.25,North,360,0.0,0.0,30,0.00,,---,0.00,VWS V14.00,2013-02-09 20:03:00,
2013-02-09 15:08:00,57.6,26.4,30.25,North,360,0.0,0.0,30,0.00,,---,0.00,VWS V14.00,2013-02-09 20:08:00,
2013-02-09 15:13:00,57.6,26.4,30.26,North,360,0.0,0.0,30,0.00,,---,0.00,VWS V14.00,2013-02-09 20:13:00,
2013-02-09 15:18:00,57.7,26.5,30.26,North,360,0.0,0.0,30,0.00,,---,0.00,VWS V14.00,2013-02-09 20:18:00,
2013-02-09 15:23:00,57.7,26.5,30.26,North,360,0.0,0.0,30,0.00,,---,0.00,VWS V14.00,2013-02-09 20:23:00,
2013-02-09 15:28:00,57.7,27.3,30.25,North,360,0.0,0.0,31,0.00,,---,0.00,VWS V14.00,2013-02-09 20:28:00,
2013-02-09 15:33:00,57.8,28.2,30.25,North,360,0.0,0.0,32,0.00,,---,0.00,VWS V14.00,2013-02-09 20:33:00,
2013-02-09 15:38:00,57.9,25.9,30.26,North,360,0.0,0.0,29,0.00,,---,0.00,VWS V14.00,2013-02-09 20:38:00,
2013-02-09 15:43:00,57.9,25.9,30.26,North,360,0.0,0.0,29,0.00,,---,0.00,VWS V14.00,2013-02-09 20:43:00,
2013-02-09 15:48:00,57.9,25.0,30.26,North,360,0.0,0.0,28,0.00,,---,0.00,VWS V14.00,2013-02-09 20:48:00,
2013-02-09 15:53:00,57.9,25.9,30.25,North,360,0.0,0.0,29,0.00,,---,0.00,VWS V14.00,2013-02-09 20:53:00,
2013-02-09 15:58:00,57.9,25.9,30.26,North,360,0.0,0.0,29,0.00,,---,0.00,VWS V14.00,2013-02-09 20:58:00,
2013-02-09 16:03:00,57.9,25.0,30.26,North,360,0.0,0.0,28,0.00,,---,0.00,VWS V14.00,2013-02-09 21:03:00,
2013-02-09 16:08:00,57.9,25.0,30.26,North,360,0.0,0.0,28,0.00,,---,0.00,VWS V14.00,2013-02-09 21:08:00,
2013-02-09 16:13:00,57.9,24.1,30.26,North,360,0.0,0.0,27,0.00,,---,0.00,VWS V14.00,2013-02-09 21:13:00,
2013-02-09 16:18:00,57.9,25.0,30.26,North,360,0.0,0.0,28,0.00,,---,0.00,VWS V14.00,2013-02-09 21:18:00,
2013-02-09 16:23:00,57.8,25.8,30.26,North,360,0.0,0.0,29,0.00,,---,0.00,VWS V14.00,2013-02-09 21:23:00,
2013-02-09 16:29:00,57.8,25.8,30.25,North,360,0.0,0.0,29,0.00,,---,0.00,VWS V14.00,2013-02-09 21:29:00,
2013-02-09 16:34:00,57.7,24.8,30.26,North,360,0.0,0.0,28,0.00,,---,0.00,VWS V14.00,2013-02-09 21:34:00,
2013-02-09 16:39:00,57.7,24.8,30.26,North,360,0.0,0.0,28,0.00,,---,0.00,VWS V14.00,2013-02-09 21:39:00,
2013-02-09 16:44:00,57.6,25.6,30.26,North,360,0.0,0.0,29,0.00,,---,0.00,VWS V14.00,2013-02-09 21:44:00,
2013-02-09 16:49:00,57.6,26.4,30.26,North,360,0.0,0.0,30,0.00,,---,0.00,VWS V14.00,2013-02-09 21:49:00,
2013-02-09 16:54:00,57.5,26.3,30.26,North,360,0.0,0.0,30,0.00,,---,0.00,VWS V14.00,2013-02-09 21:54:00,
2013-02-09 16:59:00,57.5,27.1,30.26,North,360,0.0,0.0,31,0.00,,---,0.00,VWS V14.00,2013-02-09 21:59:00,
2013-02-09 17:04:00,57.5,27.9,30.26,North,360,0.0,0.0,32,0.00,,---,0.00,VWS V14.00,2013-02-09 22:04:00,
2013-02-09 17:09:00,57.3,27.7,30.26,North,360,0.0,0.0,32,0.00,,---,0.00,VWS V14.00,2013-02-09 22:09:00,
2013-02-09 17:14:00,57.2,27.6,30.26,North,360,0.0,0.0,32,0.00,,---,0.00,VWS V14.00,2013-02-09 22:14:00,
2013-02-09 17:19:00,57.1,27.5,30.25,North,360,0.0,0.0,32,0.00,,---,0.00,VWS V14.00,2013-02-09 22:19:00,
2013-02-09 17:24:00,56.9,27.4,30.26,North,360,0.0,0.0,32,0.00,,---,0.00,VWS V14.00,2013-02-09 22:24:00,
2013-02-09 17:29:00,56.7,26.4,30.26,North,360,0.0,0.0,31,0.00,,---,0.00,VWS V14.00,2013-02-09 22:29:00,
2013-02-09 17:34:00,56.5,26.2,30.26,North,360,0.0,0.0,31,0.00,,---,0.00,VWS V14.00,2013-02-09 22:34:00,
2013-02-09 17:39:00,56.3,26.1,30.25,North,360,0.0,0.0,31,0.00,,---,0.00,VWS V14.00,2013-02-09 22:39:00,
2013-02-09 17:44:00,55.9,27.2,30.26,North,360,0.0,0.0,33,0.00,,---,0.00,VWS V14.00,2013-02-09 22:44:00,
2013-02-09 17:49:00,55.6,27.7,30.26,North,360,0.0,0.0,34,0.00,,---,0.00,VWS V14.00,2013-02-09 22:49:00,
2013-02-09 17:54:00,55.2,28.7,30.26,North,360,0.0,0.0,36,0.00,,---,0.00,VWS V14.00,2013-02-09 22:54:00,
2013-02-09 17:59:00,54.7,30.2,30.26,North,360,0.0,0.0,39,0.00,,---,0.00,VWS V14.00,2013-02-09 22:59:00,
2013-02-09 18:04:00,54.2,29.2,30.26,North,360,0.0,0.0,38,0.00,,---,0.00,VWS V14.00,2013-02-09 23:04:00,
2013-02-09 18:09:00,53.8,30.1,30.27,North,360,0.0,0.0,40,0.00,,---,0.00,VWS V14.00,2013-02-09 23:09:00,
2013-02-09 18:14:00,53.2,30.1,30.27,North,360,0.0,0.0,41,0.00,,---,0.00,VWS V14.00,2013-02-09 23:14:00,
2013-02-09 18:19:00,52.6,30.2,30.27,North,360,0.0,0.0,42,0.00,,---,0.00,VWS V14.00,2013-02-09 23:19:00,
2013-02-09 18:25:00,52.0,30.2,30.27,North,360,0.0,0.0,43,0.00,,---,0.00,VWS V14.00,2013-02-09 23:25:00,
2013-02-09 18:30:00,51.5,29.8,30.28,North,360,0.0,0.0,43,0.00,,---,0.00,VWS V14.00,2013-02-09 23:30:00,
2013-02-09 18:35:00,50.9,29.8,30.27,North,360,0.0,0.0,44,0.00,,---,0.00,VWS V14.00,2013-02-09 23:35:00,
2013-02-09 18:40:00,50.4,29.9,30.27,North,360,0.0,0.0,45,0.00,,---,0.00,VWS V14.00,2013-02-09 23:40:00,
2013-02-09 18:45:00,49.9,29.4,30.28,North,360,0.0,0.0,45,0.00,,---,0.00,VWS V14.00,2013-02-09 23:45:00,
2013-02-09 18:50:00,49.4,30.0,30.28,North,360,0.0,0.0,47,0.00,,---,0.00,VWS V14.00,2013-02-09 23:50:00,
2013-02-09 18:55:00,48.9,30.1,30.28,North,360,0.0,0.0,48,0.00,,---,0.00,VWS V14.00,2013-02-09 23:55:00,
2013-02-09 19:00:00,48.5,30.7,30.28,North,360,0.0,0.0,50,0.00,,---,0.00,VWS V14.00,2013-02-10 00:00:00,
2013-02-09 19:05:00,48.0,29.8,30.28,North,360,0.0,0.0,49,0.00,,---,0.00,VWS V14.00,2013-02-10 00:05:00,
2013-02-09 19:10:00,47.6,30.9,30.28,North,360,0.0,0.0,52,0.00,,---,0.00,VWS V14.00,2013-02-10 00:10:00,
2013-02-09 19:15:00,47.1,30.9,30.28,North,360,0.0,0.0,53,0.00,,---,0.00,VWS V14.00,2013-02-10 00:15:00,
2013-02-09 19:20:00,46.6,31.3,30.28,North,360,0.0,0.0,55,0.00,,---,0.00,VWS V14.00,2013-02-10 00:20:00,
2013-02-09 19:25:00,46.0,32.1,30.28,North,360,0.0,0.0,58,0.00,,---,0.00,VWS V14.00,2013-02-10 00:25:00,
2013-02-09 19:30:00,45.4,31.5,30.29,North,360,0.0,0.0,58,0.00,,---,0.00,VWS V14.00,2013-02-10 00:30:00,
2013-02-09 19:35:00,44.9,31.0,30.29,North,360,0.0,0.0,58,0.00,,---,0.00,VWS V14.00,2013-02-10 00:35:00,
2013-02-09 19:40:00,44.5,31.1,30.29,North,360,0.0,0.0,59,0.00,,---,0.00,VWS V14.00,2013-02-10 00:40:00,
2013-02-09 19:45:00,44.0,31.0,30.29,North,360,0.0,0.0,60,0.00,,---,0.00,VWS V14.00,2013-02-10 00:45:00,
2013-02-09 19:50:00,43.5,32.5,30.30,North,360,0.0,0.0,65,0.00,,---,0.00,VWS V14.00,2013-02-10 00:50:00,
2013-02-09 19:55:00,43.1,31.4,30.30,North,360,0.0,0.0,63,0.00,,---,0.00,VWS V14.00,2013-02-10 00:55:00,
2013-02-09 20:00:00,42.7,31.4,30.30,North,360,0.0,0.0,64,0.00,,---,0.00,VWS V14.00,2013-02-10 01:00:00,
2013-02-09 20:05:00,42.3,31.0,30.30,North,360,0.0,0.0,64,0.00,,---,0.00,VWS V14.00,2013-02-10 01:05:00,
2013-02-09 20:11:00,41.9,31.4,30.30,North,360,0.0,0.0,66,0.00,,---,0.00,VWS V14.00,2013-02-10 01:11:00,
2013-02-09 20:16:00,41.5,31.4,30.30,North,360,0.0,0.0,67,0.00,,---,0.00,VWS V14.00,2013-02-10 01:16:00,
2013-02-09 20:21:00,41.2,31.1,30.29,North,360,0.0,0.0,67,0.00,,---,0.00,VWS V14.00,2013-02-10 01:21:00,
2013-02-09 20:26:00,40.8,31.1,30.29,North,360,0.0,0.0,68,0.00,,---,0.00,VWS V14.00,2013-02-10 01:26:00,
2013-02-09 20:31:00,40.5,30.8,30.29,North,360,0.0,0.0,68,0.00,,---,0.00,VWS V14.00,2013-02-10 01:31:00,
2013-02-09 20:36:00,40.2,31.2,30.29,North,360,0.0,0.0,70,0.00,,---,0.00,VWS V14.00,2013-02-10 01:36:00,
2013-02-09 20:41:00,39.8,31.2,30.30,North,360,0.0,0.0,71,0.00,,---,0.00,VWS V14.00,2013-02-10 01:41:00,
2013-02-09 20:46:00,39.5,30.9,30.30,North,360,0.0,0.0,71,0.00,,---,0.00,VWS V14.00,2013-02-10 01:46:00,
2013-02-09 20:51:00,39.1,30.5,30.30,North,360,0.0,0.0,71,0.00,,---,0.00,VWS V14.00,2013-02-10 01:51:00,
2013-02-09 20:56:00,38.8,30.6,30.30,North,360,0.0,0.0,72,0.00,,---,0.00,VWS V14.00,2013-02-10 01:56:00,
2013-02-09 21:01:00,38.5,30.3,30.30,North,360,0.0,0.0,72,0.00,,---,0.00,VWS V14.00,2013-02-10 02:01:00,
2013-02-09 21:06:00,38.2,30.3,30.30,North,360,0.0,0.0,73,0.00,,---,0.00,VWS V14.00,2013-02-10 02:06:00,
2013-02-09 21:11:00,38.0,30.8,30.30,North,360,0.0,0.0,75,0.00,,---,0.00,VWS V14.00,2013-02-10 02:11:00,
2013-02-09 21:16:00,37.8,30.3,30.30,North,360,0.0,0.0,74,0.00,,---,0.00,VWS V14.00,2013-02-10 02:16:00,
2013-02-09 21:21:00,37.6,30.4,30.30,North,360,0.0,0.0,75,0.00,,---,0.00,VWS V14.00,2013-02-10 02:21:00,
2013-02-09 21:26:00,37.3,30.1,30.31,North,360,0.0,0.0,75,0.00,,---,0.00,VWS V14.00,2013-02-10 02:26:00,
2013-02-09 21:31:00,37.1,29.9,30.31,North,360,0.0,0.0,75,0.00,,---,0.00,VWS V14.00,2013-02-10 02:31:00,
2013-02-09 21:36:00,37.0,30.1,30.31,North,360,0.0,0.0,76,0.00,,---,0.00,VWS V14.00,2013-02-10 02:36:00,
2013-02-09 21:41:00,37.0,29.8,30.31,North,360,0.0,0.0,75,0.00,,---,0.00,VWS V14.00,2013-02-10 02:41:00,
2013-02-09 21:46:00,36.9,29.7,30.31,North,360,0.0,0.0,75,0.00,,---,0.00,VWS V14.00,2013-02-10 02:46:00,
2013-02-09 21:51:00,36.8,30.0,30.31,North,360,0.0,0.0,76,0.00,,---,0.00,VWS V14.00,2013-02-10 02:51:00,
2013-02-09 21:56:00,36.8,30.0,30.31,North,360,0.0,0.0,76,0.00,,---,0.00,VWS V14.00,2013-02-10 02:56:00,
2013-02-09 22:02:00,36.6,30.1,30.31,North,360,0.0,0.0,77,0.00,,---,0.00,VWS V14.00,2013-02-10 03:02:00,
2013-02-09 22:07:00,36.5,30.3,30.31,North,360,0.0,0.0,78,0.00,,---,0.00,VWS V14.00,2013-02-10 03:07:00,
2013-02-09 22:12:00,36.4,30.2,30.31,North,360,0.0,0.0,78,0.00,,---,0.00,VWS V14.00,2013-02-10 03:12:00,
2013-02-09 22:17:00,36.3,30.1,30.31,North,360,0.0,0.0,78,0.00,,---,0.00,VWS V14.00,2013-02-10 03:17:00,
2013-02-09 22:22:00,36.1,29.9,30.31,North,360,0.0,0.0,78,0.00,,---,0.00,VWS V14.00,2013-02-10 03:22:00,
2013-02-09 22:27:00,36.0,30.1,30.31,North,360,0.0,0.0,79,0.00,,---,0.00,VWS V14.00,2013-02-10 03:27:00,
2013-02-09 22:32:00,35.9,29.7,30.31,North,360,0.0,0.0,78,0.00,,---,0.00,VWS V14.00,2013-02-10 03:32:00,
2013-02-09 22:37:00,35.8,29.9,30.32,North,360,0.0,0.0,79,0.00,,---,0.00,VWS V14.00,2013-02-10 03:37:00,
2013-02-09 22:42:00,35.7,29.8,30.31,North,360,0.0,0.0,79,0.00,,---,0.00,VWS V14.00,2013-02-10 03:42:00,
2013-02-09 22:47:00,35.6,29.7,30.32,North,360,0.0,0.0,79,0.00,,---,0.00,VWS V14.00,2013-02-10 03:47:00,
2013-02-09 22:52:00,35.5,29.6,30.32,North,360,0.0,0.0,79,0.00,,---,0.00,VWS V14.00,2013-02-10 03:52:00,
2013-02-09 22:57:00,35.4,29.5,30.32,North,360,0.0,0.0,79,0.00,,---,0.00,VWS V14.00,2013-02-10 03:57:00,
2013-02-09 23:02:00,35.3,29.8,30.31,North,360,0.0,0.0,80,0.00,,---,0.00,VWS V14.00,2013-02-10 04:02:00,
2013-02-09 23:07:00,35.3,29.8,30.31,North,360,0.0,0.0,80,0.00,,---,0.00,VWS V14.00,2013-02-10 04:07:00,
2013-02-09 23:12:00,35.2,30.0,30.31,North,360,0.0,0.0,81,0.00,,---,0.00,VWS V14.00,2013-02-10 04:12:00,
2013-02-09 23:17:00,35.2,30.0,30.31,North,360,0.0,0.0,81,0.00,,---,0.00,VWS V14.00,2013-02-10 04:17:00,
2013-02-09 23:22:00,35.2,30.0,30.32,North,360,0.0,0.0,81,0.00,,---,0.00,VWS V14.00,2013-02-10 04:22:00,
2013-02-09 23:27:00,35.3,30.1,30.32,North,360,0.0,0.0,81,0.00,,---,0.00,VWS V14.00,2013-02-10 04:27:00,
2013-02-09 23:32:00,35.4,30.2,30.32,North,360,0.0,0.0,81,0.00,,---,0.00,VWS V14.00,2013-02-10 04:32:00,
2013-02-09 23:37:00,35.4,30.5,30.31,North,360,0.0,0.0,82,0.00,,---,0.00,VWS V14.00,2013-02-10 04:37:00,
2013-02-09 23:42:00,35.5,30.0,30.32,North,360,0.0,0.0,80,0.00,,---,0.00,VWS V14.00,2013-02-10 04:42:00,
2013-02-09 23:47:00,35.7,30.5,30.32,North,360,0.0,0.0,81,0.00,,---,0.00,VWS V14.00,2013-02-10 04:47:00,
2013-02-09 23:53:00,35.8,30.9,30.32,North,360,0.0,0.0,82,0.00,,---,0.00,VWS V14.00,2013-02-10 04:53:00,
2013-02-09 23:58:00,35.9,30.6,30.32,North,360,0.0,0.0,81,0.00,,---,0.00,VWS V14.00,2013-02-10 04:58:00,